YUKONSAT (56316 NORAD) Tracking and Keplerian Element Data

This shows tracking and keplerian element data for the satellite.

Feedback or suggestion? Click here.




ElementValue
Catalog56316
NameYUKONSAT
Epoch Orbit197
Epoch Day126.9815266
Epoch Year2023
RAAN172.6369
Inclination51.6378
Eccentricity0.000769
Argument of Perigee300.5833
Mean Anonmoly59.4398
Mean Motion15.5200829
Decay Rate0.00059492
L11 56316U 98067VH 23126.98152660 .00059492 00000+0 96975-3 0 9999
L22 56316 51.6378 172.6369 0007690 300.5833 59.4398 15.52008290 1978



Live tracking and technical data element details for YUKONSAT (NORAD 56316). YUKONSAT can be tracked NOW for your location showing map with azimuth and elevation plus other details from your city location.







IsCatalogInMostPopularTable: catalog: 56316, numindb: 18
Update: records affected: 1



GetName: 56316 YUKONSAT

Hit Count: updated at: Wed, 07 Jun 2023 08:34:06 GMT